Theta_e
352 353 353 353 352 353 356 353 353 355 358 354 353 351 349 351 348 344 342 344 342 344 345 346 362 365 365 371 368 369 371 364 361 362 367 368 375 355 351 353 352 352 350 349 349 350 351 352 353 352 352 352 352 350 349 346 345 344 342 342 341 340 340 338 339 339 340 341 342 343 344 346 346 346
360 356 353 353 351 354 353 353 350 355 359 353 352 351 352 355 351 349 345 347 349 346 345 346 357 372 365 366 365 365 367 362 365 364 367 367 373 351 351 350 350 350 348 346 346 347 348 348 347 347 348 347 348 347 347 344 343 340 339 338 337 337 336 337 337 336 337 339 339 340 342 343 344 343
363 361 355 356 353 357 355 356 352 354 355 353 353 354 355 354 356 354 353 347 352 351 348 349 352 351 361 361 358 362 365 367 367 365 368 370 361 355 357 351 350 348 346 345 344 344 343 343 343 345 344 344 343 342 342 341 339 337 335 335 334 334 334 335 334 334 335 336 336 338 339 341 342 341
361 363 363 362 360 358 357 356 354 354 357 356 353 355 355 357 358 360 356 353 351 355 350 353 354 354 360 361 363 365 365 371 361 366 369 371 360 370 366 351 350 347 346 343 341 340 339 338 340 342 341 341 341 340 339 337 335 334 332 331 331 330 329 331 332 332 333 334 334 335 337 339 340 340
365 366 366 365 364 363 360 358 355 353 354 356 354 356 356 353 358 358 357 354 354 358 359 355 354 357 360 357 364 363 362 362 366 363 368 368 367 369 370 366 348 345 342 340 338 338 337 337 338 339 339 338 338 337 336 334 332 331 331 329 327 327 327 328 330 330 330 331 332 334 335 337 338 339
363 366 367 365 363 366 362 360 356 354 352 351 352 353 353 354 354 360 356 355 356 355 359 356 362 358 360 358 367 366 362 363 366 364 366 364 364 364 373 367 362 342 342 339 337 336 335 335 335 337 336 335 334 333 332 330 329 328 327 326 325 326 326 326 327 328 327 328 330 332 333 334 335 337
364 362 366 364 364 362 361 361 358 355 353 352 352 351 351 353 354 357 361 358 355 356 356 361 357 358 360 362 363 365 364 368 367 369 368 361 359 361 360 373 362 341 340 337 336 335 334 333 333 332 332 333 332 331 327 326 325 325 324 323 323 324 323 322 323 324 324 324 326 329 331 332 333 335
360 360 362 361 360 361 360 361 360 359 356 355 356 354 356 358 357 359 360 362 362 360 356 360 359 360 362 363 365 364 365 362 364 364 367 365 365 365 358 364 363 345 337 337 335 335 334 331 331 329 330 328 326 327 326 325 324 322 322 322 321 322 320 320 320 321 321 322 322 325 328 331 331 332
360 360 359 359 361 362 359 360 359 358 358 357 356 355 357 357 358 360 361 362 363 363 361 362 366 366 365 365 366 367 365 365 364 366 369 367 367 369 365 362 360 341 336 337 334 333 333 333 331 330 329 327 326 326 326 324 323 321 319 319 320 321 320 319 319 319 319 319 320 322 324 328 329 330
358 358 359 359 360 360 359 358 358 361 360 359 357 358 358 358 360 361 363 365 365 364 364 365 363 367 361 363 365 367 367 363 360 359 361 366 370 373 369 362 360 354 349 345 339 335 332 332 328 329 329 327 325 325 325 324 322 320 317 316 318 319 318 317 317 317 318 318 319 319 321 324 327 328
355 356 355 358 359 360 360 359 358 360 360 359 359 361 361 361 360 359 362 364 363 364 362 362 363 362 363 363 359 364 369 370 367 363 358 358 364 368 369 367 364 361 357 351 343 343 343 335 332 325 325 326 326 324 324 322 321 320 319 317 318 317 317 317 317 315 316 317 318 319 319 319 322 325
352 352 354 353 355 358 361 361 361 361 359 361 360 360 361 362 361 359 358 359 360 360 359 358 358 359 362 364 364 363 362 360 363 367 364 361 363 365 372 371 367 367 364 358 350 343 339 336 333 325 327 328 326 325 324 325 324 322 321 321 321 319 318 317 317 316 315 315 316 317 319 318 319 320
353 351 350 351 351 359 370 366 366 364 367 360 360 363 363 364 362 362 361 359 360 359 358 359 361 358 358 360 360 357 357 356 357 361 361 361 361 359 359 368 370 369 365 363 356 351 349 344 338 335 335 333 330 328 329 329 325 322 321 322 321 319 318 318 316 316 315 315 315 315 317 318 317 318
350 350 350 347 362 367 372 369 364 360 362 365 365 366 365 364 364 362 362 361 359 358 357 356 356 354 353 353 358 357 357 360 363 358 360 358 361 364 362 364 365 367 364 361 365 362 361 353 347 346 344 341 337 335 333 332 327 324 322 321 321 320 319 317 317 316 316 315 316 315 314 316 317 316
350 347 348 350 353 369 367 370 363 359 356 357 357 356 357 363 370 364 361 361 360 357 356 356 356 354 353 352 354 352 348 347 346 346 357 356 358 358 356 353 362 369 368 367 364 364 367 366 361 361 360 346 343 342 336 324 325 323 323 322 321 321 320 319 318 318 316 316 316 316 315 316 317 317
353 351 347 345 345 347 352 353 368 364 354 350 351 351 352 352 351 353 363 367 362 361 358 356 356 355 355 355 357 353 352 352 350 354 357 360 358 358 356 356 355 367 371 367 363 361 367 365 363 363 360 360 358 337 326 324 323 324 323 323 321 320 320 319 319 317 318 316 316 316 316 317 317 317
354 353 351 348 345 342 360 361 354 368 369 350 345 348 350 351 349 342 340 344 361 369 366 360 359 358 358 358 358 356 356 360 355 356 349 356 356 357 355 355 356 363 376 370 364 359 361 360 359 360 362 360 335 327 326 326 325 323 323 322 321 320 320 319 318 318 317 317 315 313 313 315 316 316
353 357 355 354 353 350 352 360 358 360 364 370 367 362 362 362 359 349 342 340 341 349 361 364 361 364 367 365 367 370 368 363 361 359 356 360 357 358 359 361 363 366 361 357 356 357 356 358 354 357 361 359 339 336 325 322 324 323 322 321 321 320 319 319 318 317 316 316 316 315 312 311 311 313
352 359 358 360 358 360 358 353 357 358 361 366 369 370 364 362 361 362 360 359 357 357 356 360 361 363 364 367 368 370 371 367 368 366 365 364 362 363 364 364 363 359 362 360 357 352 355 359 354 356 359 357 346 334 322 322 323 323 321 321 321 320 320 319 318 317 316 317 315 314 313 312 311 312
357 356 359 362 362 363 365 361 348 355 365 364 364 367 369 367 363 360 359 348 350 358 357 359 356 356 356 349 362 365 360 367 377 372 367 366 367 365 361 357 354 349 352 357 357 354 356 360 350 352 356 360 342 333 330 323 323 323 321 321 320 318 318 319 318 317 317 317 316 315 313 311 309 310
357 356 359 364 358 360 365 355 337 337 354 364 361 362 361 361 360 361 362 345 338 340 338 338 341 340 338 336 334 333 336 364 368 370 362 358 360 358 356 355 354 351 350 349 351 352 354 358 355 351 351 360 351 338 335 327 322 321 321 320 320 318 316 317 317 317 317 316 316 315 313 311 309 311
359 360 358 364 360 361 364 345 334 333 350 365 361 360 358 358 357 357 356 354 356 335 334 335 335 336 337 338 337 338 337 335 351 366 360 358 356 353 353 348 349 348 349 345 347 355 354 356 356 353 355 363 358 346 340 331 324 321 319 317 318 316 316 315 316 317 316 316 316 315 312 311 311 330
359 359 359 357 356 358 357 338 331 329 347 364 362 361 359 355 354 356 358 357 354 360 359 361 357 356 349 357 363 363 343 342 356 367 366 361 356 351 350 349 349 346 348 353 361 349 347 346 350 354 349 347 353 359 337 333 327 325 326 324 321 316 315 314 314 313 315 315 315 314 312 310 313 336
360 360 361 359 334 331 332 331 327 323 327 361 363 362 359 357 354 355 355 359 358 361 362 364 365 364 364 364 364 365 366 362 360 363 366 365 362 357 355 352 349 344 344 352 349 355 348 351 347 353 349 345 343 349 336 337 332 330 331 329 325 320 318 317 316 313 313 313 312 313 312 311 312 336
357 359 360 361 342 326 325 325 323 319 319 334 365 364 362 361 367 365 364 362 369 360 363 365 366 366 367 365 364 362 362 360 362 361 360 363 363 361 356 351 348 346 348 353 348 359 350 349 348 350 351 349 346 348 347 342 338 337 337 335 333 327 322 322 324 325 315 311 311 309 310 312 312 320
359 359 360 362 350 326 323 322 321 319 319 321 356 367 339 338 338 366 368 369 367 364 360 357 356 354 354 358 361 360 360 360 360 360 361 360 362 365 363 359 353 347 346 373 344 364 360 354 349 348 350 348 349 348 350 348 347 342 340 339 339 330 327 327 329 331 329 328 328 320 322 313 315 314
359 361 363 363 352 323 319 318 319 319 319 323 343 333 330 329 331 348 362 362 362 363 363 361 360 358 356 355 354 354 355 357 360 357 362 364 364 364 366 365 361 356 356 360 373 367 368 359 361 355 352 351 351 348 349 349 349 350 345 341 343 335 332 335 334 335 335 333 333 317 313 310 311 313
359 361 362 359 337 320 313 314 316 318 320 337 326 323 327 329 335 355 359 358 359 358 357 358 359 360 359 359 358 356 359 357 363 361 362 369 366 366 364 367 363 364 364 361 363 369 370 363 358 364 362 355 350 346 345 350 351 350 343 343 343 341 337 337 335 335 335 336 333 327 328 328 328 325
358 344 331 324 326 323 312 313 315 317 318 318 323 322 324 333 352 355 357 356 356 355 355 355 357 358 359 360 361 365 368 370 368 371 365 366 369 368 368 368 368 368 363 361 361 364 368 365 362 362 364 359 354 354 350 349 349 349 345 343 339 339 338 338 337 334 335 332 331 330 332 334 333 331
334 330 326 323 326 325 321 334 341 346 345 322 319 323 328 346 351 354 355 356 354 354 354 355 355 356 359 359 362 369 371 368 366 365 366 365 359 359 359 363 364 365 364 365 364 362 362 364 367 368 362 362 356 353 355 351 351 351 346 345 344 341 339 336 334 334 332 331 331 333 334 334 334 331
344 349 347 347 337 336 333 334 340 340 344 340 333 335 340 346 352 353 355 355 356 355 355 354 356 358 359 362 365 366 367 365 366 366 365 361 359 361 360 361 360 359 364 366 364 362 362 363 366 366 364 362 360 358 359 356 352 351 349 347 346 336 336 336 335 334 334 333 334 332 334 332 331 331
351 351 342 344 354 358 358 354 355 356 359 356 351 349 348 349 351 352 351 353 358 359 360 358 359 358 363 361 359 359 359 360 362 366 364 361 360 359 361 360 358 358 359 362 363 365 365 368 368 369 368 365 360 361 360 358 354 353 353 347 345 344 341 333 333 334 338 337 330 330 333 330 329 329
349 347 347 349 352 354 352 352 354 354 355 356 357 358 358 355 354 354 353 353 353 356 357 357 358 359 359 359 359 358 357 362 361 367 367 369 366 366 362 355 353 354 354 356 360 362 365 366 369 370 370 368 366 364 359 352 353 355 352 352 345 341 341 335 334 334 338 335 332 330 332 332 332 332
342 346 349 352 352 352 354 353 352 353 355 356 356 357 346 355 356 354 354 354 354 356 356 357 356 357 358 358 358 359 356 360 360 363 353 366 367 364 360 358 356 355 354 353 355 354 361 367 369 370 370 370 370 369 365 356 353 354 353 353 349 341 341 342 337 337 338 333 332 328 329 330 331 332
341 343 347 347 349 351 354 354 355 355 355 356 356 358 355 356 354 352 354 355 354 353 354 356 356 356 356 357 357 356 356 357 359 359 362 365 365 361 360 357 357 356 355 354 354 358 356 365 365 361 362 361 358 362 356 363 356 354 354 353 350 341 341 341 336 335 336 335 332 330 329 331 330 331
342 343 344 346 349 352 352 353 354 355 355 356 358 355 353 353 354 355 355 358 358 356 355 355 356 355 357 356 356 357 355 354 357 357 357 358 359 358 358 357 356 357 357 355 355 356 356 353 360 356 352 349 347 345 350 348 351 358 352 350 351 348 341 341 341 338 334 332 332 330 326 327 330 332
342 344 347 349 352 353 351 353 354 355 356 357 355 355 355 353 354 356 360 360 360 355 356 357 356 356 356 356 355 353 354 357 355 356 355 356 357 355 354 356 354 358 356 357 357 355 356 353 354 354 349 345 344 342 345 358 343 343 359 350 350 349 342 342 339 336 334 333 331 329 329 329 329 332
341 345 348 349 351 353 354 353 352 353 355 356 357 357 357 357 357 359 368 368 360 358 356 356 355 355 357 356 357 357 357 356 356 356 354 355 355 354 352 351 352 355 355 356 356 356 356 354 353 352 350 345 343 342 342 349 353 344 337 355 351 349 340 339 334 331 333 334 331 331 332 328 329 334
343 344 345 347 349 350 351 351 351 353 355 356 357 357 359 359 358 360 359 358 362 360 359 358 357 356 356 359 355 357 356 355 355 354 355 356 355 355 354 353 353 354 355 353 355 356 356 354 353 353 351 348 345 345 347 347 347 354 344 328 348 352 340 338 333 332 332 331 331 333 333 340 330 322
344 347 348 349 350 352 351 352 352 353 354 356 357 358 359 358 359 359 360 358 361 366 361 359 358 353 359 358 356 358 356 357 355 355 354 354 353 354 354 356 354 355 355 352 351 352 354 354 356 354 354 354 354 357 356 354 352 355 351 336 323 341 344 338 334 332 331 333 332 329 328 331 330 334
342 345 348 351 353 355 356 355 354 355 356 357 359 351 360 361 362 367 360 358 357 363 361 362 362 362 360 360 362 359 357 356 356 355 355 355 351 352 348 342 354 355 353 351 352 351 352 356 359 342 358 363 357 353 351 346 344 345 342 343 323 318 321 329 339 336 333 335 332 328 327 327 327 329
343 345 349 353 354 356 357 360 360 359 359 359 360 360 363 364 356 349 353 350 359 365 364 363 362 361 362 363 362 357 357 356 355 354 354 354 353 353 346 348 353 354 353 352 353 354 358 364 363 359 359 354 346 343 340 340 342 343 342 341 341 324 315 318 327 329 342 334 331 329 327 328 329 327
344 346 350 354 357 359 359 359 361 360 359 361 363 364 365 349 353 350 353 357 360 359 360 361 363 364 364 363 363 362 359 357 358 357 355 353 353 353 352 355 354 355 354 353 355 356 358 359 362 359 354 348 345 343 341 340 341 343 343 337 336 338 333 315 314 315 315 312 316 329 339 335 326 323
354 354 356 358 359 360 362 363 363 363 362 361 362 365 359 346 345 345 350 356 359 361 362 361 360 361 362 363 363 361 360 359 359 358 357 355 354 355 353 354 354 355 354 352 353 354 355 355 357 351 348 345 343 341 340 341 340 339 340 336 336 334 332 329 327 317 317 317 313 309 308 311 314 315
355 357 358 361 364 361 359 360 362 359 358 358 361 363 349 346 344 347 351 357 359 361 362 363 361 362 364 362 361 359 360 348 353 359 357 357 356 355 354 356 355 356 354 354 352 352 353 352 352 348 346 345 344 342 340 340 341 338 334 333 333 333 334 329 328 327 326 328 320 312 311 312 314 312
Wind_Speed
5 5 6 4 4 4 2 3 3 2 3 2 2 3 2 2 3 3 1 2 4 1 5 2 3 2 2 1 3 2 2 5 3 5 3 1 6 8 6 3 2 4 6 6 5 6 7 7 7 8 8 9 9 9 9 10 10 10 11 12 12 12 11 11 10 10 10 10 10 10 10 10 9 9
4 4 5 6 5 5 4 4 5 0 3 4 4 4 2 2 1 1 2 2 5 2 1 4 4 6 0 3 3 0 2 8 2 4 4 3 6 10 7 4 3 4 6 6 6 6 6 7 8 8 9 9 8 8 9 10 10 11 11 11 11 11 11 10 10 9 9 9 9 9 10 10 9 10
4 3 4 4 4 4 5 4 5 5 5 4 5 3 0 1 1 1 2 4 1 3 4 4 4 5 1 2 4 3 3 6 1 3 4 2 12 11 7 6 4 5 6 7 6 4 6 7 8 9 8 8 8 8 9 9 10 10 10 10 11 11 11 11 11 10 9 9 9 9 9 9 10 9
4 4 5 5 4 4 4 4 5 4 4 3 5 4 4 3 3 2 3 4 5 4 6 5 3 5 3 2 2 2 5 6 4 1 3 3 7 10 6 6 6 6 7 8 7 6 7 8 8 8 8 8 8 8 9 9 9 9 9 9 10 11 11 11 12 12 12 11 10 9 9 10 10 9
4 4 5 5 5 5 5 5 5 6 5 5 5 4 4 4 4 4 4 5 4 4 4 5 5 4 4 4 2 4 4 3 0 5 2 4 3 5 8 7 7 8 9 10 9 7 8 8 8 7 7 7 7 8 8 8 8 8 8 8 9 9 10 11 12 12 12 12 11 10 10 10 10 10
5 5 6 6 6 6 6 6 6 6 6 7 7 6 5 5 6 5 4 4 5 5 4 5 4 5 4 5 2 2 4 4 4 4 4 5 2 1 7 7 7 9 9 11 10 8 9 8 7 5 6 6 7 7 8 8 7 7 8 8 7 8 9 10 11 12 12 12 11 11 10 10 10 9
7 7 7 7 7 6 6 6 6 7 6 6 6 6 6 6 6 5 4 4 5 6 5 5 6 5 2 3 4 5 4 4 4 4 5 4 4 2 4 8 6 9 10 12 12 10 9 9 8 7 6 7 6 6 7 7 6 6 6 6 6 7 8 9 10 11 12 11 11 11 10 9 9 9
8 8 7 7 7 6 6 6 6 6 6 6 5 5 5 4 5 5 4 5 5 5 6 5 5 5 5 5 5 5 4 5 4 4 4 6 5 3 7 4 8 8 10 11 12 11 10 10 9 8 7 8 7 6 6 6 5 4 4 5 5 6 7 7 9 10 10 11 10 11 10 10 9 8
7 8 9 8 8 8 8 7 7 7 8 7 6 6 6 6 6 6 6 6 6 6 7 6 5 5 6 6 5 5 5 5 5 4 4 5 5 4 7 3 7 11 8 10 11 11 11 9 9 8 7 7 7 7 7 5 4 3 3 3 4 5 5 6 7 8 9 10 10 11 11 10 10 9
8 8 9 9 9 8 9 8 8 7 8 7 8 8 7 6 6 6 6 6 6 6 7 7 7 6 7 6 5 4 5 6 5 5 5 5 5 4 5 1 7 7 7 6 5 6 7 9 10 10 9 8 7 7 7 6 3 3 2 2 3 4 4 5 6 7 8 8 8 9 10 11 10 10
9 10 9 9 10 9 9 9 9 8 9 8 8 8 8 7 7 7 6 6 7 7 7 7 7 7 6 6 6 6 5 5 5 6 6 5 4 3 3 4 4 5 8 8 10 10 10 11 9 10 11 11 10 9 7 6 5 3 2 2 1 2 3 4 5 6 6 7 7 8 9 10 10 11
10 10 10 10 11 11 10 10 9 9 8 7 8 8 7 7 8 8 7 7 7 7 8 8 7 7 6 5 5 5 5 6 6 6 5 6 4 4 3 5 5 4 3 6 7 6 10 10 8 10 9 9 10 11 9 8 7 5 3 1 1 1 2 3 4 5 5 5 6 7 8 8 9 9
10 10 10 10 11 10 11 13 10 10 6 6 8 7 7 7 8 8 8 7 7 7 7 8 7 7 7 6 6 6 5 6 6 4 4 5 5 5 6 4 4 3 4 6 3 9 9 9 8 8 7 7 10 10 9 9 8 7 4 2 1 0 1 2 3 4 4 4 5 5 6 7 8 8
11 12 11 11 12 10 10 12 14 13 11 7 7 5 6 8 8 8 8 8 8 7 8 8 8 8 8 8 7 8 7 6 6 6 6 6 5 5 5 5 6 5 6 6 5 5 5 8 9 8 9 8 11 7 8 6 7 7 5 4 2 1 1 1 2 3 3 3 4 4 4 5 6 7
11 11 12 11 11 10 9 9 12 13 14 14 13 12 11 7 6 8 9 9 8 8 8 8 8 9 8 8 7 7 7 6 6 5 3 4 4 5 5 7 4 4 5 5 6 6 6 6 5 6 5 10 10 10 6 12 12 9 7 5 3 2 2 0 1 2 2 3 3 3 2 3 4 5
11 12 12 12 11 11 12 12 11 12 15 15 15 15 13 14 14 10 7 7 8 9 9 9 9 8 8 7 6 7 7 5 5 4 4 5 5 6 6 6 6 2 2 5 6 7 6 7 7 6 5 7 2 8 12 13 12 10 8 6 5 4 2 1 0 1 2 2 3 2 2 1 2 2
11 10 11 11 11 11 13 13 13 11 12 14 17 16 16 15 15 14 14 13 10 7 8 9 9 9 8 8 7 7 6 5 6 5 5 5 6 6 7 7 6 5 5 4 6 8 7 7 5 7 7 4 8 8 11 11 10 9 8 7 6 5 4 2 1 1 1 2 2 2 1 0 1 1
13 12 11 10 10 12 10 8 12 11 12 11 11 11 11 11 14 16 17 17 16 13 10 9 10 9 8 8 7 7 6 6 7 6 6 6 7 6 7 7 7 6 7 8 7 7 8 8 8 6 7 3 8 7 11 13 11 10 9 8 6 6 4 3 2 2 2 3 3 3 2 3 2 3
13 11 12 12 13 11 10 11 10 12 12 12 11 12 13 14 13 13 14 15 13 12 13 13 14 12 11 10 10 8 7 8 8 7 7 7 7 7 7 7 8 9 8 10 9 9 8 7 8 6 6 5 7 7 10 13 12 11 11 8 8 6 5 4 4 3 3 3 4 5 5 4 4 4
11 12 12 11 12 12 11 12 13 12 11 12 13 13 12 12 13 13 14 16 15 15 14 14 15 15 15 14 12 10 10 8 8 7 7 7 7 7 7 8 8 9 8 9 9 8 8 7 9 7 6 6 7 7 7 11 13 12 10 10 8 8 6 6 5 5 4 3 4 5 6 7 6 5
13 13 13 13 13 14 13 13 13 14 12 12 13 13 13 13 12 12 11 17 20 19 18 17 18 17 17 15 12 8 5 7 5 5 7 9 8 8 8 8 8 9 8 8 8 8 8 6 7 7 5 8 8 8 8 8 11 12 12 10 9 8 8 6 6 6 5 5 4 5 6 8 7 5
12 13 17 15 15 14 13 14 15 14 12 12 14 13 14 14 13 12 12 9 13 21 21 22 19 19 18 17 12 7 5 5 4 7 9 10 8 9 9 9 9 9 8 8 7 5 9 8 7 6 5 6 6 8 8 8 8 9 8 10 9 9 9 8 7 7 7 6 5 4 5 8 9 5
12 13 13 17 16 15 15 15 13 15 12 13 14 14 13 14 14 13 11 13 11 10 11 11 12 10 11 10 8 10 14 11 8 8 10 10 9 9 10 10 8 10 9 9 7 7 8 7 6 6 6 7 7 5 10 8 7 7 6 7 6 10 10 10 8 9 9 7 6 4 5 7 8 6
12 13 13 13 18 20 18 15 13 13 15 14 14 13 13 13 15 12 12 11 10 10 10 13 13 13 12 12 11 12 11 11 11 11 10 10 10 10 10 11 11 10 8 6 7 7 8 6 7 5 7 6 6 5 8 7 7 8 7 7 6 9 9 8 7 10 10 8 6 5 5 6 8 4
12 12 12 13 15 20 20 19 17 14 16 15 13 14 13 14 8 4 8 10 11 11 10 8 9 10 9 10 10 11 12 12 12 12 13 12 11 11 12 12 12 12 11 9 8 6 7 8 8 7 7 7 8 5 8 8 9 9 9 8 8 8 7 7 6 6 8 9 7 5 5 5 6 6
12 12 12 12 12 18 21 21 20 19 16 18 12 15 16 15 12 10 6 7 8 10 10 11 12 12 11 11 11 11 11 12 12 13 13 14 13 12 13 12 12 12 11 6 9 8 7 8 9 9 7 7 8 8 5 7 8 9 10 10 9 9 9 8 8 7 6 5 5 5 4 4 5 4
12 11 12 13 13 16 19 21 21 20 20 14 13 19 17 16 14 7 8 9 9 9 10 10 10 9 10 11 11 11 11 12 11 12 12 12 12 13 13 14 14 14 12 9 5 7 5 7 7 7 8 7 8 7 8 7 8 9 8 9 8 9 10 9 9 8 8 7 6 9 6 4 5 7
12 12 13 11 14 14 17 19 19 19 19 15 20 19 19 18 12 7 9 9 11 10 11 11 11 11 10 10 11 10 10 11 9 10 9 10 14 13 13 13 14 13 12 12 10 8 7 8 8 7 8 8 9 10 9 8 7 8 9 9 8 9 10 9 8 7 7 7 6 6 5 5 5 4
13 12 7 9 7 6 14 17 17 16 18 22 20 20 20 17 10 10 10 12 11 12 12 12 12 12 11 11 11 9 9 8 8 7 8 7 8 12 12 12 11 11 11 12 13 10 9 9 10 8 8 8 10 9 9 9 8 5 9 8 9 9 8 8 8 8 7 7 7 8 8 7 7 7
16 14 13 9 5 2 5 6 6 7 9 16 19 19 17 11 11 11 12 12 13 13 12 12 12 12 11 12 11 10 9 9 9 8 8 8 10 10 10 11 11 12 13 12 13 12 11 10 9 9 9 9 9 10 9 9 9 6 8 9 7 6 7 8 8 8 8 8 8 7 6 5 5 6
10 11 10 11 11 10 7 11 10 11 10 11 10 9 9 11 11 11 11 12 12 12 12 12 12 11 11 10 9 9 9 10 10 9 8 10 11 10 10 9 10 11 12 13 13 13 12 11 10 9 10 10 10 10 9 9 9 8 7 9 9 9 8 9 8 8 8 8 7 7 6 6 5 5
8 10 12 12 11 11 9 8 8 10 10 10 9 10 11 12 13 14 15 13 12 12 12 11 11 11 10 11 11 11 11 12 11 10 10 10 11 10 9 9 11 11 11 12 13 12 11 10 9 9 10 9 11 9 8 9 10 10 8 9 10 9 7 10 10 8 7 7 8 8 7 7 7 6
6 7 10 12 12 13 16 15 15 14 14 14 14 14 13 12 13 13 14 14 14 13 12 12 11 12 11 12 11 11 11 10 10 9 10 10 10 10 10 12 12 11 12 11 11 9 10 10 10 10 8 9 10 10 9 11 10 9 9 8 9 10 9 10 10 9 8 8 8 8 8 8 8 8
9 10 10 9 11 14 15 16 15 15 14 14 14 13 15 15 15 13 13 13 14 13 13 13 13 12 12 12 12 12 13 11 11 10 11 10 10 10 11 12 12 11 10 11 11 11 8 8 8 8 7 6 6 7 8 11 10 10 10 9 9 10 9 7 9 9 10 10 9 9 9 9 8 8
10 9 8 9 10 13 16 16 16 14 14 14 14 16 16 13 14 14 15 14 12 12 13 13 13 13 13 13 12 13 13 12 12 11 10 10 10 12 13 14 12 11 11 11 11 10 8 7 8 8 7 7 10 11 9 10 12 12 10 10 8 9 9 9 9 9 10 10 9 9 9 9 9 9
10 9 9 11 13 14 16 16 16 16 17 15 16 16 14 14 14 15 15 12 12 12 13 13 13 13 14 14 13 14 13 11 12 12 11 11 11 12 13 13 12 12 11 12 11 10 10 9 8 9 10 10 10 11 11 14 15 12 12 10 10 9 9 9 8 8 10 11 10 10 10 10 10 10
11 10 11 13 13 15 17 16 16 16 17 16 16 16 15 14 13 13 12 12 12 13 13 12 13 13 13 13 13 13 13 12 14 12 13 13 12 13 13 13 12 11 13 12 10 10 10 10 9 10 11 12 10 12 13 6 17 19 13 15 11 8 9 9 9 9 11 11 11 11 10 9 9 9
10 9 11 10 11 12 12 13 15 14 14 14 13 12 14 15 14 12 9 9 11 13 13 14 13 12 13 12 14 14 13 13 13 13 13 14 14 14 14 13 13 12 12 12 11 11 11 11 10 11 11 14 14 16 14 9 7 13 20 13 12 8 9 10 11 12 11 11 11 10 9 10 9 6
10 11 12 11 10 11 12 13 13 14 15 14 13 13 13 13 13 11 9 10 10 11 12 12 12 11 13 13 12 12 12 13 14 14 14 15 14 14 13 13 13 12 12 13 13 12 12 13 12 12 13 15 16 15 12 10 8 6 14 23 12 9 9 12 12 12 11 11 10 9 8 3 6 6
11 10 11 12 12 11 11 12 13 14 14 14 15 13 13 13 13 11 9 10 10 9 11 12 12 12 13 13 12 12 14 15 15 14 13 14 13 14 15 13 14 13 12 14 14 13 13 13 13 13 14 14 13 7 3 0 2 5 8 16 25 17 10 12 12 12 11 10 9 10 11 8 7 5
10 11 13 14 14 13 12 12 13 14 15 15 14 14 14 14 11 5 5 9 5 6 8 9 10 12 13 12 10 10 10 11 13 15 16 14 13 13 15 13 13 13 13 13 13 13 14 12 11 11 11 6 1 6 0 4 8 7 9 9 17 17 13 17 11 11 10 10 10 11 11 11 10 8
11 12 13 14 15 15 15 13 12 14 14 14 14 14 13 3 10 6 11 13 9 8 8 10 10 9 10 10 11 11 12 13 14 14 13 14 14 12 12 10 12 13 13 14 13 13 10 7 7 8 9 6 5 7 9 11 12 10 8 8 9 13 10 13 17 13 10 11 11 8 8 10 9 10
12 13 14 14 15 16 16 13 12 13 15 14 12 12 4 11 3 7 8 9 9 10 12 11 10 9 9 11 11 12 12 13 12 10 9 10 12 13 11 10 11 12 14 14 11 9 8 8 6 6 6 7 11 11 11 9 9 10 8 8 8 8 7 3 3 5 5 6 6 4 3 6 10 10
11 12 13 13 13 14 11 10 10 9 10 12 11 9 6 10 10 13 10 10 11 11 11 11 11 12 12 13 14 15 13 12 11 11 11 10 11 12 12 11 9 10 11 11 11 11 9 9 6 7 9 11 7 8 10 11 10 11 8 6 6 10 12 7 3 4 5 2 3 9 15 18 14 10
11 11 12 10 9 8 8 6 3 6 9 12 12 7 9 7 10 11 11 11 12 12 10 9 11 12 10 11 13 14 12 10 11 10 10 11 11 11 10 9 8 9 9 10 10 10 10 10 8 8 11 12 12 12 13 13 13 9 7 8 9 8 7 7 6 7 6 3 5 7 10 10 11 13
Wind_Direction
213 211 213 229 240 256 273 279 265 63 8 296 298 328 26 51 330 305 21 311 331 125 318 115 134 58 158 242 306 237 281 75 14 330 332 350 111 109 115 116 112 81 68 63 45 34 36 43 51 60 64 69 69 70 63 56 48 37 32 24 21 22 21 18 16 19 22 18 16 19 26 27 24 18
229 224 203 195 219 223 238 228 260 250 165 229 239 232 154 155 298 1 296 334 285 319 274 296 128 193 174 232 241 50 6 120 305 330 312 321 110 125 134 146 129 97 82 81 69 51 54 66 70 71 72 72 72 68 61 58 47 39 29 22 18 17 16 12 11 12 18 20 18 13 18 23 24 22
219 218 217 215 238 247 243 261 243 220 191 219 258 267 295 232 291 265 290 274 278 329 299 293 359 336 153 359 340 315 329 141 73 327 313 319 126 141 142 157 156 113 100 95 85 75 79 88 88 84 83 81 77 69 63 59 51 42 31 22 13 12 9 10 11 9 13 18 20 15 15 18 20 22
211 220 221 217 223 228 238 238 248 253 245 243 233 217 226 223 236 251 262 270 287 296 295 323 317 262 22 331 258 332 302 120 132 316 274 283 186 153 146 167 158 131 124 115 111 109 106 100 95 95 91 87 76 70 66 60 54 43 36 25 13 12 12 10 12 10 9 12 16 15 15 15 16 20
215 218 233 227 225 228 229 228 236 237 218 213 237 246 223 238 230 221 227 257 274 283 301 303 289 330 324 311 2 288 293 294 27 318 305 295 304 148 157 153 164 146 140 125 121 120 111 107 107 104 97 89 82 77 71 64 52 43 35 26 15 13 11 9 11 11 8 7 10 14 16 15 15 16
238 219 226 233 231 219 229 230 236 244 233 207 217 214 231 233 234 213 238 258 283 290 290 281 304 311 283 274 247 305 305 300 308 292 300 286 240 310 150 158 150 162 153 133 127 125 117 114 115 110 105 94 93 87 80 71 57 48 40 29 18 17 11 8 8 11 10 6 6 11 14 20 22 16
226 229 227 230 230 226 223 224 236 243 250 247 230 224 215 219 237 233 212 242 262 273 282 288 273 262 285 295 302 299 286 295 267 266 274 288 306 322 271 159 144 167 152 138 134 134 129 128 126 124 120 110 103 95 86 76 66 56 43 27 24 17 16 11 8 11 11 7 3 4 10 21 25 20
225 229 233 235 235 233 230 230 233 237 244 245 253 259 264 270 261 269 260 226 242 261 274 274 283 298 300 293 289 277 272 272 279 289 302 283 263 295 296 139 139 161 157 145 141 145 140 140 140 134 124 119 112 101 88 82 77 67 47 36 26 18 18 10 13 13 11 8 1 0 7 18 26 27
232 232 233 231 231 229 233 229 226 229 229 238 238 233 233 238 240 244 245 247 236 245 259 269 271 276 271 272 274 273 275 283 275 244 255 275 286 270 291 101 127 136 158 144 148 152 150 147 151 147 137 130 125 113 105 101 98 85 63 45 28 26 19 20 18 19 15 5 3 5 7 18 26 30
227 232 230 234 232 230 232 233 229 230 235 234 233 240 241 231 230 234 239 242 251 254 258 267 273 264 266 260 256 263 271 274 278 287 277 257 240 244 269 287 153 166 162 162 154 153 155 154 157 156 148 139 136 133 127 130 132 126 120 69 41 25 21 26 28 26 21 12 356 7 10 12 22 31
223 227 231 230 232 233 233 235 232 225 228 236 239 231 231 244 247 240 236 237 242 244 252 254 254 262 260 260 263 247 233 246 262 278 281 278 277 248 247 268 286 198 169 164 169 179 173 157 170 164 158 154 149 142 143 143 151 151 142 132 75 34 21 26 39 36 29 22 6 3 14 14 19 28
232 227 228 231 225 226 229 234 236 234 233 227 233 234 234 233 236 241 244 241 239 243 247 250 259 258 268 260 266 280 263 253 252 253 260 266 265 278 260 271 268 295 302 198 177 149 132 157 151 162 168 167 158 151 152 158 154 165 177 170 114 48 4 32 43 45 43 35 24 11 10 15 17 23
231 240 240 235 236 222 209 216 226 241 249 241 230 227 234 235 232 236 245 246 244 247 252 259 259 260 256 259 262 261 257 257 266 269 272 279 288 278 271 248 260 268 252 281 185 169 181 178 176 180 183 179 172 173 171 146 159 163 167 180 160 93 313 26 46 45 51 48 41 27 13 16 20 24
233 232 238 244 238 236 214 201 205 217 239 255 267 261 228 228 232 236 239 240 242 244 249 251 253 252 252 250 238 240 243 239 232 241 237 254 259 270 283 287 275 253 267 273 291 279 212 199 176 200 189 174 181 173 185 169 145 154 160 180 192 222 266 320 43 49 45 59 55 42 25 12 20 22
238 239 237 242 239 218 208 201 200 209 213 226 237 252 263 270 264 247 237 236 242 244 245 246 249 255 261 263 277 285 287 284 284 276 276 266 281 284 282 287 284 263 276 276 272 260 264 288 263 222 245 157 191 176 142 122 133 151 159 169 193 210 220 257 80 35 32 50 56 54 35 22 13 16
234 238 240 238 239 233 224 226 203 205 211 215 221 228 238 247 249 245 252 260 249 240 244 248 253 260 258 263 253 258 261 273 285 296 281 264 265 260 267 270 273 288 191 270 268 269 267 259 244 255 250 242 189 120 136 143 142 152 155 169 183 193 206 195 48 8 10 8 35 38 34 11 33 6
236 237 236 242 244 249 215 205 219 209 211 215 220 222 227 234 240 248 245 237 240 267 262 255 253 248 256 258 260 260 273 281 271 282 274 277 265 259 263 260 274 286 160 229 263 277 282 281 254 248 240 220 114 125 139 141 148 149 161 171 182 188 192 209 207 350 315 342 332 347 344 323 245 194
232 231 237 236 238 241 243 219 212 217 219 213 213 220 223 228 232 233 239 243 239 237 246 253 254 253 252 257 256 260 259 253 253 255 259 257 254 253 254 264 264 267 271 269 270 271 268 267 266 251 264 171 130 141 147 155 156 161 162 174 189 186 202 207 205 225 290 300 308 304 296 272 229 217
242 236 230 232 237 237 235 238 224 222 222 221 221 217 219 221 227 225 225 226 228 225 229 233 241 244 247 250 249 249 247 248 244 241 252 256 264 267 274 271 264 265 253 251 257 260 260 263 264 245 253 151 141 130 152 164 162 167 169 174 189 186 194 216 218 219 243 269 287 287 289 282 252 222
235 238 238 236 235 234 236 231 226 219 222 225 227 228 225 224 224 226 222 218 218 222 221 224 229 233 235 236 239 242 246 237 219 234 236 246 250 254 256 256 258 261 256 241 232 238 249 264 277 282 266 161 140 153 161 177 173 169 173 175 186 189 191 216 223 222 232 251 265 281 287 285 265 227
233 232 230 232 238 235 233 229 218 219 216 229 232 233 237 237 236 232 226 205 210 213 222 222 224 232 237 239 240 250 246 244 265 246 240 237 234 236 244 250 255 257 261 261 251 225 247 254 261 265 264 174 164 165 170 167 182 178 173 177 184 188 194 205 225 224 223 225 250 275 291 296 281 239
234 232 229 229 232 235 236 225 212 209 205 224 233 239 243 242 241 241 246 241 204 208 209 215 218 221 227 234 232 221 230 227 218 227 237 236 241 246 243 253 257 264 271 271 281 257 229 240 238 247 261 176 206 175 161 153 162 176 176 186 187 196 201 200 218 231 228 232 242 271 285 304 298 228
229 233 227 225 229 233 235 231 212 203 197 221 229 236 244 248 248 244 241 243 246 210 215 228 226 236 237 238 236 226 215 208 210 225 235 240 245 249 249 253 254 261 253 256 237 246 269 268 250 254 256 253 224 214 133 153 158 176 183 178 195 207 209 202 210 231 238 235 225 249 295 317 312 264
228 229 233 221 218 227 233 234 215 201 203 216 228 234 238 243 246 248 248 247 249 256 220 215 219 223 225 229 227 234 228 211 206 221 228 233 238 243 246 244 249 256 261 256 250 246 253 247 260 248 258 260 266 132 135 155 171 179 186 175 192 188 206 213 217 228 245 239 234 251 290 310 338 297
236 233 230 237 212 212 222 225 222 202 205 215 226 229 237 240 258 336 263 256 256 250 254 242 214 211 218 227 232 232 229 230 223 217 220 226 224 231 238 244 247 252 250 253 234 246 243 249 259 261 259 260 258 241 156 165 177 184 187 182 193 162 185 203 204 196 213 247 247 251 265 279 334 350
239 238 237 238 217 202 211 217 219 214 205 212 220 230 234 242 257 268 275 284 270 261 249 244 247 248 234 225 227 233 236 230 225 225 217 211 218 221 231 237 243 252 256 252 173 207 224 239 244 248 250 257 257 259 188 192 185 185 187 193 196 166 182 189 198 191 184 199 194 215 217 232 275 340
242 239 240 242 230 196 206 211 215 213 211 208 220 230 237 239 243 250 255 259 264 262 259 260 257 244 242 246 244 240 237 238 234 233 218 212 208 217 224 228 238 247 254 269 192 239 236 249 249 248 253 253 266 265 254 228 206 183 191 198 202 166 186 197 196 192 187 187 192 169 192 220 274 294
250 249 247 245 243 203 202 209 213 213 208 213 219 223 231 237 238 241 244 244 245 249 253 251 250 248 248 246 242 243 244 245 242 241 235 198 202 209 217 224 235 243 254 255 245 216 236 252 245 241 247 255 256 256 259 252 260 169 193 188 210 198 186 202 195 196 189 188 170 166 202 212 207 215
257 270 337 5 343 226 205 207 211 213 213 214 217 218 224 228 234 229 233 239 238 240 239 240 241 245 243 243 245 248 247 248 252 252 252 246 206 202 211 223 229 236 237 240 243 244 232 230 244 245 239 236 245 253 254 260 271 200 180 189 204 201 196 197 201 193 184 191 193 192 205 209 190 199
242 254 277 285 302 191 201 219 217 216 210 214 219 221 220 223 227 227 229 228 232 237 239 236 238 240 240 239 239 239 241 247 244 244 243 238 245 236 220 216 226 231 236 238 240 240 239 235 230 233 242 237 238 247 250 256 251 231 181 206 201 189 198 195 197 188 186 194 204 202 210 207 197 197
288 285 286 271 265 285 216 209 222 226 216 201 212 222 222 225 226 224 224 229 229 231 234 237 240 239 240 241 238 229 224 227 231 236 237 240 238 233 234 238 235 232 231 238 239 238 236 238 238 227 227 236 238 238 243 246 251 250 194 200 201 206 190 191 193 197 186 193 200 198 201 192 194 209
257 250 253 261 266 258 250 230 232 235 229 221 202 205 209 215 220 224 226 224 233 234 232 236 237 239 235 238 237 236 233 230 226 221 231 231 232 231 230 229 235 238 240 234 237 234 233 236 234 230 229 227 237 237 234 235 242 242 239 195 206 213 192 187 192 197 179 180 196 200 191 198 201 191
253 255 252 256 251 250 249 249 246 242 237 233 229 223 216 213 216 219 219 222 223 222 226 229 229 231 231 235 236 239 239 231 226 221 227 227 230 229 229 235 235 233 237 239 236 230 227 229 221 232 233 235 233 236 237 241 239 238 239 213 196 207 205 190 195 191 174 185 199 196 188 206 213 203
232 233 245 238 248 254 249 244 239 236 233 231 227 224 220 229 238 224 216 219 219 214 217 220 224 229 231 234 233 235 238 236 233 225 218 222 223 229 230 233 236 239 240 244 242 243 224 217 224 216 228 238 236 227 228 240 246 239 233 233 208 200 208 196 190 189 176 189 188 202 198 196 212 212
216 229 226 233 234 247 248 245 241 234 231 227 224 232 237 224 225 233 235 226 219 218 215 215 218 221 224 230 231 234 234 235 235 235 222 219 222 230 235 241 240 237 238 241 240 237 235 213 200 215 215 229 242 241 226 230 240 236 231 222 199 197 202 204 192 193 176 187 194 205 210 198 203 201
221 218 227 232 235 238 247 245 246 245 244 237 237 246 239 233 232 226 229 226 225 222 223 220 217 217 220 223 226 229 232 230 235 235 234 226 222 227 237 240 242 241 238 238 239 237 237 234 200 211 221 228 236 248 245 205 213 234 227 221 219 198 192 201 196 186 175 192 200 204 210 206 203 196
217 210 222 230 233 240 246 248 250 251 251 251 249 248 243 238 234 232 220 199 214 224 228 225 224 221 221 223 225 224 228 228 233 232 236 237 235 234 233 233 232 234 241 241 240 240 231 233 211 211 229 236 232 236 245 221 208 217 237 235 224 208 183 187 188 195 188 196 201 206 211 209 210 198
222 219 231 230 232 235 241 245 247 248 249 250 249 246 247 247 241 233 222 204 204 212 219 225 232 230 229 225 228 231 230 228 228 230 230 232 233 236 238 237 233 227 233 240 238 237 235 237 223 205 214 230 236 240 247 228 213 216 219 229 235 204 174 182 191 200 194 198 205 207 208 215 211 223
208 222 229 234 227 227 231 234 237 242 243 243 244 242 242 243 241 237 229 228 223 218 219 223 227 231 233 234 232 230 232 234 233 232 232 232 232 234 235 237 236 231 231 235 234 234 233 235 226 210 207 220 230 232 235 244 236 217 204 205 215 222 185 192 195 195 198 197 204 199 210 196 52 69
217 222 232 237 241 232 227 227 230 232 235 237 238 236 234 234 233 232 230 232 229 219 230 232 232 232 233 234 237 238 237 236 238 238 236 234 232 231 232 228 228 226 222 229 232 229 228 229 223 219 214 219 232 240 288 221 241 228 209 210 210 211 200 190 193 195 198 199 191 197 200 188 200 171
227 228 234 236 241 240 231 224 223 226 229 231 231 230 228 226 222 154 211 242 245 234 229 230 232 232 237 238 240 243 242 239 240 240 239 238 234 232 232 226 229 224 226 227 230 232 231 228 231 218 220 234 145 63 204 253 241 219 208 207 209 226 213 187 191 192 195 184 190 197 200 199 200 181
226 230 235 237 236 237 241 240 230 226 227 227 229 227 226 222 72 189 226 228 226 232 238 237 237 234 233 229 223 221 236 242 243 243 244 244 245 239 237 235 236 236 235 234 233 238 239 236 225 194 207 165 138 196 219 220 229 224 213 203 190 208 231 215 198 198 194 188 187 191 198 200 199 209
215 226 234 238 238 239 240 239 239 240 242 236 232 233 176 92 135 235 245 238 228 225 228 231 235 234 231 233 231 230 233 240 242 246 250 251 250 249 243 228 227 233 239 244 243 243 238 236 221 178 173 176 208 211 226 223 221 233 222 201 190 186 196 221 172 141 116 81 80 145 187 193 195 210
236 232 235 237 242 245 245 247 259 263 263 259 249 244 125 133 197 233 232 233 232 227 225 228 234 238 238 238 240 241 235 235 235 234 233 235 243 249 249 245 228 227 229 229 231 230 230 229 210 170 183 198 188 193 218 225 228 224 204 199 194 192 202 180 157 24 350 292 147 101 78 74 74 71
244 247 249 253 255 259 268 293 296 270 273 275 266 245 118 152 211 227 229 226 224 226 223 223 231 234 232 238 242 240 237 233 234 236 230 232 231 234 237 237 233 223 223 222 229 232 229 237 222 196 214 210 200 209 219 225 228 213 190 197 214 209 194 157 171 207 213 202 73 102 101 92 97 95